Weather History for Evanston, WY

Change the Weather History Date:

Tuesday, October 9, 2012

  Actual Average Record
Temperature  
Mean Temperature 51 °F 47 °F  
Max Temperature 66 °F 59 °F 75 °F (1996)
Min Temperature 36 °F 34 °F 26 °F (2001)
Degree Days  
Heating Degree Days 14 18  
Month to date heating degree days 161 151  
Since 1 July heating degree days 331 548  
Cooling Degree Days 0 0  
Month to date cooling degree days 0 0  
Year to date cooling degree days 346 162  
Moisture  
Dew Point 10 °F    
Average Humidity 23    
Maximum Humidity 37    
Minimum Humidity 8    
Precipitation  
Precipitation 0.00 in 0.03 in 0.06 in (2001)
Month to date precipitation 0.00 0.27  
Year to date precipitation 3.44 9.61  
Sea Level Pressure  
Sea Level Pressure 29.95 in    
Wind  
Wind Speed 13 mph (WSW)    
Max Wind Speed 24 mph    
Max Gust Speed 32 mph    
Visibility 10 miles    
Events      
T = Trace of Precipitation, MM = Missing Value Source: NWS Daily Summary

Daily Weather History Graph

Daily Weather History Graph

Search for Another Location

Airport:

Trip Planner

Search our weather history database for the weather conditions in past years. The results will help you decide how hot, cold, wet, or windy it might be!

Date:

Astronomy

Oct. 09, 2012 Rise Set
Actual Time 7:29 AM MDT 6:51 PM MDT
Civil Twilight 7:02 AM MDT 7:19 PM MDT
Nautical Twilight 6:30 AM MDT 7:51 PM MDT
Astronomical Twilight 5:58 AM MDT 8:23 PM MDT
Moon 1:06 AM MDT (10/9) 3:24 PM MDT (10/9)
Length of Visible Light 12h 17m
Length of Day
11h 21m
Last Quarter, 36% of the Moon is Illuminated
Oct 9
Last Quarter
Oct 15
New
Oct 21
First Quarter
Oct 29
Full
Nov 6
Last Quarter

Hourly Weather History & Observations

Time (MDT) Temp. Windchill Dew Point Humidity Pressure Visibility Wind Dir Wind Speed Gust Speed Precip Events Conditions
12:53 AM 43.0 °F 38.2 °F 10.0 °F 26% 29.88 in 10.0 mi SW 8.1 mph - N/A   Clear
2:53 AM 41.0 °F 35.2 °F 10.9 °F 29% 29.88 in 10.0 mi SW 9.2 mph - N/A   Clear
3:53 AM 37.9 °F 30.9 °F 12.0 °F 35% 29.90 in 10.0 mi WSW 10.4 mph - N/A   Clear
4:53 AM 39.0 °F 31.8 °F 12.0 °F 33% 29.90 in 10.0 mi WSW 11.5 mph - N/A   Clear
5:53 AM 36.0 °F 28.5 °F 12.9 °F 39% 29.92 in 10.0 mi WSW 10.4 mph - N/A   Clear
6:53 AM 39.0 °F 31.4 °F 14.0 °F 36% 29.94 in 10.0 mi WSW 12.7 mph - N/A   Clear
7:53 AM 37.9 °F 30.5 °F 14.0 °F 38% 29.98 in 10.0 mi WSW 11.5 mph - N/A   Clear
8:53 AM 44.1 °F 38.6 °F 15.1 °F 31% 29.97 in 10.0 mi WSW 10.4 mph - N/A   Clear
9:53 AM 52.0 °F - 16.0 °F 24% 29.97 in 10.0 mi West 8.1 mph - N/A   Clear
11:53 AM 60.1 °F - 12.0 °F 15% 29.95 in 10.0 mi West 17.3 mph 24.2 mph N/A   Clear
12:53 PM 62.1 °F - 12.0 °F 14% 29.93 in 10.0 mi WSW 18.4 mph 25.3 mph N/A   Clear
1:53 PM 64.0 °F - 12.0 °F 13% 29.91 in 10.0 mi West 19.6 mph 24.2 mph N/A   Clear
2:53 PM 64.9 °F - 3.9 °F 9% 29.92 in 10.0 mi West 21.9 mph 33.4 mph N/A   Clear
3:53 PM 64.0 °F - 1.9 °F 8% 29.94 in 10.0 mi West 24.2 mph 32.2 mph N/A   Clear
4:53 PM 63.0 °F - 1.9 °F 9% 29.94 in 10.0 mi West 25.3 mph 31.1 mph N/A   Clear
5:53 PM 60.1 °F - 1.9 °F 10% 29.97 in 10.0 mi West 19.6 mph - N/A   Clear
6:53 PM 54.0 °F - 5.0 °F 14% 29.99 in 10.0 mi West 12.7 mph - N/A   Clear
8:53 PM 46.0 °F 43.1 °F 8.1 °F 21% 30.04 in 10.0 mi WSW 5.8 mph - N/A   Clear
9:53 PM 48.0 °F - 9.0 °F 21% 30.00 in 10.0 mi SW 3.5 mph - N/A   Clear
10:53 PM 46.0 °F 43.9 °F 10.0 °F 23% 29.99 in 10.0 mi SE 4.6 mph - N/A   Clear
11:53 PM 46.9 °F - 10.9 °F 23% 29.98 in 10.0 mi SSE 3.5 mph - N/A   Clear